• In Belarus
  • List of Countries
  • For 7 days
  • Water Temperature
  • Satellite Maps
  • Weather Map
  • Weather Widgets
  • user-avatar
    Login

    Hourly Weather Igls

    Today, 20 January, Saturday

    Time Temperature Precipitation Wind Pressure Humidity
    00:00 -5°C° 0.2 mm 2 mps 680 mmHg 87%
    01:00 -4°C° 0 mm 2 mps 680 mmHg 87%
    02:00 -2°C° 0.4 mm 1 mps 680 mmHg 89%
    03:00 -2°C° 0.4 mm 1 mps 680 mmHg 91%
    04:00 -2°C° 0.4 mm 1 mps 680 mmHg 93%
    05:00 -3°C° 0.1 mm 1 mps 680 mmHg 92%
    06:00 -3°C° 0.1 mm 1 mps 680 mmHg 91%
    07:00 -6°C° 0 mm 2 mps 679 mmHg 90%
    08:00 -5°C° 0 mm 2 mps 679 mmHg 87%
    09:00 -4°C° 0 mm 2 mps 679 mmHg 84%
    10:00 -3°C° 0 mm 2 mps 679 mmHg 81%
    11:00 -2°C° 0 mm 2 mps 679 mmHg 76%
    12:00 -1°C° 0 mm 2 mps 678 mmHg 70%
    13:00 +2°C° 0 mm 2 mps 678 mmHg 65%
    14:00 +1°C° 0 mm 2 mps 677 mmHg 70%
    15:00 +1°C° 0 mm 2 mps 676 mmHg 76%
    16:00 +1°C° 0 mm 2 mps 675 mmHg 81%
    17:00 -1°C° 0.4 mm 3 mps 675 mmHg 84%
    18:00 -2°C° 0.4 mm 3 mps 674 mmHg 87%
    19:00 -4°C° 0.4 mm 3 mps 673 mmHg 90%
    20:00 -4°C° 1.3 mm 3 mps 673 mmHg 92%
    21:00 -4°C° 1.3 mm 3 mps 672 mmHg 93%
    22:00 -4°C° 1.3 mm 3 mps 672 mmHg 95%
    23:00 -2°C° 1.6 mm 3 mps 672 mmHg 95%

    Tomorrow, 21 January, Sunday

    Time Temperature Precipitation Wind Pressure Humidity
    00:00 -2°C° 1.6 mm 2 mps 673 mmHg 95%
    01:00 -2°C° 1.6 mm 2 mps 673 mmHg 96%
    02:00 -1°C° 1 mm 2 mps 673 mmHg 96%
    03:00 +1°C° 1 mm 1 mps 673 mmHg 96%
    04:00 +1°C° 1 mm 1 mps 673 mmHg 96%
    05:00 +1°C° 1.8 mm 2 mps 673 mmHg 96%
    06:00 +1°C° 1.8 mm 2 mps 673 mmHg 96%
    07:00 +1°C° 1.8 mm 2 mps 674 mmHg 96%
    08:00 0°C° 1.3 mm 3 mps 674 mmHg 96%
    09:00 0°C° 1.3 mm 3 mps 675 mmHg 96%
    10:00 0°C° 1.3 mm 3 mps 676 mmHg 96%
    11:00 -2°C° 0.7 mm 4 mps 677 mmHg 95%
    12:00 -2°C° 0.7 mm 4 mps 677 mmHg 93%
    13:00 -2°C° 0.7 mm 4 mps 678 mmHg 92%
    14:00 -3°C° 0.3 mm 4 mps 679 mmHg 92%
    15:00 -2°C° 0.3 mm 3 mps 679 mmHg 92%
    16:00 -2°C° 0.3 mm 3 mps 680 mmHg 92%
    17:00 -3°C° 0.2 mm 2 mps 681 mmHg 92%
    18:00 -4°C° 0.2 mm 2 mps 681 mmHg 93%
    19:00 -5°C° 0.2 mm 2 mps 682 mmHg 94%
    20:00 -4°C° 0.4 mm 2 mps 682 mmHg 93%
    21:00 -4°C° 0.4 mm 2 mps 682 mmHg 93%
    22:00 -4°C° 0.4 mm 2 mps 682 mmHg 93%
    23:00 -1°C° 0.8 mm 1 mps 682 mmHg 93%

    Day after tomorrow, 22 January, Monday

    Time Temperature Precipitation Wind Pressure Humidity
    00:00 -1°C° 0.8 mm 1 mps 682 mmHg 93%
    01:00 0°C° 0.8 mm 1 mps 681 mmHg 94%
    02:00 -1°C° 2.1 mm 2 mps 681 mmHg 95%
    03:00 -1°C° 2.1 mm 2 mps 680 mmHg 95%
    04:00 +1°C° 2.1 mm 2 mps 680 mmHg 96%
    05:00 +2°C° 3.3 mm 2 mps 679 mmHg 96%
    06:00 +2°C° 3.3 mm 2 mps 679 mmHg 96%
    07:00 +2°C° 3.3 mm 2 mps 679 mmHg 96%
    08:00 +3°C° 2.6 mm 2 mps 680 mmHg 97%
    09:00 +3°C° 2.6 mm 2 mps 680 mmHg 97%
    10:00 +4°C° 2.6 mm 2 mps 680 mmHg 97%
    11:00 +4°C° 1 mm 2 mps 680 mmHg 98%
    12:00 +5°C° 1 mm 2 mps 681 mmHg 98%
    13:00 +5°C° 1 mm 3 mps 681 mmHg 99%
    14:00 +5°C° 0.2 mm 2 mps 681 mmHg 98%
    15:00 +5°C° 0.2 mm 2 mps 681 mmHg 97%
    16:00 +5°C° 0.2 mm 2 mps 681 mmHg 97%
    17:00 +5°C° 0.1 mm 2 mps 681 mmHg 95%
    18:00 +4°C° 0.1 mm 2 mps 681 mmHg 94%
    19:00 +4°C° 0.1 mm 2 mps 682 mmHg 93%
    20:00 +4°C° 0.3 mm 2 mps 682 mmHg 92%
    21:00 +4°C° 0.3 mm 2 mps 682 mmHg 91%
    22:00 +4°C° 0.3 mm 2 mps 682 mmHg 90%
    23:00 +5°C° 0.8 mm 1 mps 682 mmHg 91%

    23 January, Tuesday

    Time Temperature Precipitation Wind Pressure Humidity
    00:00 +5°C° 0.8 mm 1 mps 683 mmHg 92%
    01:00 +5°C° 0.8 mm 1 mps 683 mmHg 93%
    02:00 +5°C° 1.1 mm 1 mps 683 mmHg 94%
    03:00 +5°C° 1.1 mm 1 mps 683 mmHg 94%
    04:00 +5°C° 1.1 mm 1 mps 683 mmHg 95%
    05:00 +5°C° 0.9 mm 1 mps 684 mmHg 95%
    06:00 +5°C° 0.9 mm 1 mps 685 mmHg 95%
    07:00 +5°C° 0.9 mm 1 mps 685 mmHg 95%
    08:00 +5°C° 0.1 mm 1 mps 686 mmHg 96%
    09:00 +4°C° 0.1 mm 2 mps 687 mmHg 97%
    10:00 +5°C° 0.1 mm 2 mps 687 mmHg 97%
    11:00 +5°C° 0 mm 2 mps 687 mmHg 98%
    12:00 +5°C° 0 mm 2 mps 688 mmHg 98%
    13:00 +5°C° 0 mm 2 mps 688 mmHg 99%
    14:00 +5°C° 0 mm 2 mps 688 mmHg 98%
    15:00 +5°C° 0 mm 2 mps 688 mmHg 97%
    16:00 +6°C° 0 mm 1 mps 689 mmHg 97%
    17:00 +4°C° 0 mm 1 mps 689 mmHg 95%
    18:00 +3°C° 0 mm 1 mps 689 mmHg 93%
    19:00 +2°C° 0 mm 1 mps 690 mmHg 92%
    20:00 +2°C° 0 mm 1 mps 690 mmHg 87%
    21:00 +1°C° 0 mm 1 mps 690 mmHg 83%
    22:00 +1°C° 0 mm 1 mps 690 mmHg 79%
    23:00 +1°C° 0 mm 1 mps 690 mmHg 76%

    24 January, Wednesday

    Time Temperature Precipitation Wind Pressure Humidity
    00:00 0°C° 0 mm 1 mps 690 mmHg 72%
    01:00 0°C° 0 mm 1 mps 690 mmHg 68%
    02:00 0°C° 0 mm 1 mps 690 mmHg 66%
    03:00 0°C° 0 mm 1 mps 690 mmHg 64%
    04:00 0°C° 0 mm 1 mps 690 mmHg 63%
    05:00 0°C° 0 mm 1 mps 690 mmHg 61%
    06:00 0°C° 0 mm 1 mps 691 mmHg 60%
    07:00 0°C° 0 mm 1 mps 691 mmHg 59%
    08:00 +2°C° 0 mm 1 mps 691 mmHg 63%
    09:00 +4°C° 0 mm 1 mps 691 mmHg 66%
    10:00 +5°C° 0 mm 1 mps 692 mmHg 70%
    11:00 +6°C° 0 mm 1 mps 691 mmHg 77%
    12:00 +7°C° 0 mm 1 mps 691 mmHg 85%
    13:00 +8°C° 0 mm 1 mps 691 mmHg 93%
    14:00 +7°C° 0 mm 1 mps 691 mmHg 89%
    15:00 +7°C° 0 mm 1 mps 690 mmHg 85%
    16:00 +7°C° 0 mm 1 mps 690 mmHg 82%
    17:00 +5°C° 0 mm 1 mps 690 mmHg 77%
    18:00 +3°C° 0 mm 2 mps 690 mmHg 73%
    19:00 +2°C° 0 mm 2 mps 690 mmHg 69%
    20:00 +1°C° 0 mm 2 mps 690 mmHg 67%
    21:00 +1°C° 0 mm 2 mps 690 mmHg 66%
    22:00 +1°C° 0 mm 2 mps 690 mmHg 65%
    23:00 +1°C° 0 mm 2 mps 690 mmHg 65%

    25 January, Thursday

    Time Temperature Precipitation Wind Pressure Humidity
    00:00 +1°C° 0 mm 2 mps 689 mmHg 64%
    01:00 -1°C° 0 mm 2 mps 689 mmHg 64%
    02:00 -1°C° 0 mm 2 mps 689 mmHg 65%
    03:00 -1°C° 0 mm 2 mps 689 mmHg 65%
    04:00 -1°C° 0 mm 2 mps 688 mmHg 65%
    05:00 -1°C° 0 mm 2 mps 688 mmHg 65%
    06:00 -1°C° 0 mm 2 mps 688 mmHg 64%
    07:00 -1°C° 0 mm 2 mps 688 mmHg 64%
    08:00 +1°C° 0 mm 2 mps 688 mmHg 67%
    09:00 +3°C° 0 mm 2 mps 688 mmHg 70%
    10:00 +4°C° 0 mm 2 mps 688 mmHg 73%
    11:00 +5°C° 0 mm 2 mps 688 mmHg 79%
    12:00 +6°C° 0 mm 2 mps 687 mmHg 85%
    13:00 +6°C° 0 mm 2 mps 686 mmHg 91%
    14:00 +6°C° 0 mm 2 mps 686 mmHg 90%
    15:00 +6°C° 0 mm 2 mps 686 mmHg 89%
    16:00 +5°C° 0 mm 2 mps 685 mmHg 88%
    17:00 +4°C° 0 mm 2 mps 685 mmHg 86%
    18:00 +3°C° 0 mm 2 mps 685 mmHg 84%
    19:00 +2°C° 0 mm 2 mps 684 mmHg 82%
    20:00 +2°C° 0 mm 2 mps 684 mmHg 83%
    21:00 +1°C° 0 mm 2 mps 684 mmHg 84%
    22:00 +1°C° 0 mm 2 mps 684 mmHg 85%
    23:00 +1°C° 0 mm 2 mps 684 mmHg 86%
    Show more